Location: Lesignano de� Bagni
(44.6500°N, 10.3000°E)
Time: 16:37:38
(UTC+00:00)

Cosmos 2322 Rocket - Pass Details

Date: 03 March 2021
Orbit: 832 x 852 km, 71.0° (Epoch: 19 April)

Event Time Altitude Azimuth Distance (km) Brightness Sun altitude
Rises 19:06:52 0° 234° (SW) 3,366 5.9 -21.6°
Reaches altitude 10° 19:09:34 10° 245° (WSW) 2,437 5.3 -22.1°
Maximum altitude 19:14:30 31° 307° (NW) 1,419 3.9 -22.9°
Drops below altitude 10° 19:19:28 10° 9° (N) 2,455 4.7 -23.8°
Sets 19:22:13 0° 20° (NNE) 3,396 5.3 -24.2°
